When you browse on this site, cookies collect data to enhance your experience and personalize the content and advertising you see.
Visit our Privacy Policy to learn more. By continuing to use the site, you agree to this use of cookies and data.
  • In Hungary
  • List of Countries
  • For 7 days
  • Water Temperature
  • Satellite Maps
  • Weather Map
  • News
  • Weather Widgets
  • user-avatar
    Login

    Hourly Weather Korçe

    Today, 22 April, Monday

    Time Temperature Precipitation Wind Pressure Humidity
    00:00 +6°C° 0 mm 0 mps 669 mmHg 96%
    01:00 +8°C° 0 mm 1 mps 668 mmHg 98%
    02:00 +8°C° 0 mm 1 mps 668 mmHg 97%
    03:00 +8°C° 0 mm 1 mps 668 mmHg 97%
    04:00 +8°C° 0 mm 1 mps 668 mmHg 97%
    05:00 +8°C° 0 mm 1 mps 668 mmHg 93%
    06:00 +9°C° 0 mm 1 mps 668 mmHg 89%
    07:00 +10°C° 0 mm 1 mps 669 mmHg 83%
    08:00 +10°C° 0 mm 2 mps 669 mmHg 75%
    09:00 +13°C° 0 mm 2 mps 669 mmHg 67%
    10:00 +13°C° 0 mm 3 mps 669 mmHg 59%
    11:00 +14°C° 0 mm 3 mps 669 mmHg 57%
    12:00 +14°C° 0 mm 3 mps 669 mmHg 55%
    13:00 +14°C° 0 mm 3 mps 669 mmHg 52%
    14:00 +14°C° 0 mm 3 mps 668 mmHg 53%
    15:00 +14°C° 0 mm 3 mps 668 mmHg 54%
    16:00 +13°C° 0 mm 3 mps 668 mmHg 55%
    17:00 +12°C° 0.7 mm 3 mps 667 mmHg 65%
    18:00 +10°C° 0.7 mm 3 mps 667 mmHg 76%
    19:00 +8°C° 0.7 mm 2 mps 666 mmHg 86%
    20:00 +8°C° 0.3 mm 2 mps 666 mmHg 87%
    21:00 +8°C° 0.3 mm 2 mps 666 mmHg 88%
    22:00 +7°C° 0.3 mm 2 mps 666 mmHg 89%
    23:00 +7°C° 0 mm 3 mps 666 mmHg 89%

    Tomorrow, 23 April, Tuesday

    Time Temperature Precipitation Wind Pressure Humidity
    00:00 +7°C° 0 mm 3 mps 666 mmHg 89%
    01:00 +7°C° 0 mm 3 mps 666 mmHg 90%
    02:00 +7°C° 0 mm 3 mps 666 mmHg 90%
    03:00 +7°C° 0 mm 3 mps 665 mmHg 89%
    04:00 +7°C° 0 mm 3 mps 665 mmHg 89%
    05:00 +6°C° 0 mm 4 mps 665 mmHg 87%
    06:00 +7°C° 0 mm 4 mps 665 mmHg 84%
    07:00 +7°C° 0 mm 4 mps 665 mmHg 81%
    08:00 +9°C° 0 mm 5 mps 666 mmHg 72%
    09:00 +13°C° 0 mm 5 mps 667 mmHg 63%
    10:00 +15°C° 0 mm 6 mps 667 mmHg 53%
    11:00 +15°C° 0.2 mm 6 mps 668 mmHg 51%
    12:00 +16°C° 0.2 mm 7 mps 668 mmHg 49%
    13:00 +16°C° 0.2 mm 7 mps 668 mmHg 46%
    14:00 +15°C° 0.1 mm 7 mps 668 mmHg 50%
    15:00 +14°C° 0.1 mm 6 mps 667 mmHg 54%
    16:00 +13°C° 0.1 mm 6 mps 667 mmHg 58%
    17:00 +10°C° 0 mm 5 mps 667 mmHg 66%
    18:00 +8°C° 0 mm 4 mps 667 mmHg 74%
    19:00 +7°C° 0 mm 4 mps 666 mmHg 82%
    20:00 +7°C° 0 mm 3 mps 667 mmHg 84%
    21:00 +7°C° 0 mm 3 mps 667 mmHg 86%
    22:00 +7°C° 0 mm 3 mps 667 mmHg 88%
    23:00 +7°C° 0 mm 3 mps 668 mmHg 86%

    Day after tomorrow, 24 April, Wednesday

    Time Temperature Precipitation Wind Pressure Humidity
    00:00 +7°C° 0 mm 3 mps 668 mmHg 83%
    01:00 +7°C° 0 mm 3 mps 668 mmHg 80%
    02:00 +5°C° 0 mm 3 mps 668 mmHg 78%
    03:00 +6°C° 0 mm 2 mps 668 mmHg 77%
    04:00 +6°C° 0 mm 2 mps 668 mmHg 75%
    05:00 +8°C° 0 mm 2 mps 668 mmHg 72%
    06:00 +9°C° 0 mm 2 mps 669 mmHg 69%
    07:00 +12°C° 0 mm 2 mps 669 mmHg 66%
    08:00 +13°C° 0 mm 3 mps 670 mmHg 59%
    09:00 +16°C° 0 mm 3 mps 671 mmHg 51%
    10:00 +18°C° 0 mm 3 mps 672 mmHg 44%
    11:00 +19°C° 0 mm 3 mps 672 mmHg 43%
    12:00 +19°C° 0 mm 3 mps 672 mmHg 42%
    13:00 +20°C° 0 mm 3 mps 672 mmHg 41%
    14:00 +20°C° 0 mm 3 mps 671 mmHg 43%
    15:00 +19°C° 0 mm 3 mps 671 mmHg 45%
    16:00 +19°C° 0 mm 3 mps 671 mmHg 47%
    17:00 +17°C° 0 mm 2 mps 670 mmHg 54%
    18:00 +15°C° 0 mm 2 mps 670 mmHg 61%
    19:00 +12°C° 0 mm 1 mps 670 mmHg 69%
    20:00 +12°C° 0 mm 1 mps 670 mmHg 71%
    21:00 +11°C° 0 mm 1 mps 670 mmHg 74%
    22:00 +9°C° 0 mm 2 mps 670 mmHg 76%
    23:00 +9°C° 0 mm 2 mps 670 mmHg 75%

    25 April, Thursday

    Time Temperature Precipitation Wind Pressure Humidity
    00:00 +9°C° 0 mm 2 mps 670 mmHg 74%
    01:00 +9°C° 0 mm 2 mps 670 mmHg 73%
    02:00 +8°C° 0 mm 2 mps 670 mmHg 68%
    03:00 +8°C° 0 mm 2 mps 670 mmHg 63%
    04:00 +8°C° 0 mm 2 mps 669 mmHg 58%
    05:00 +9°C° 0 mm 2 mps 670 mmHg 56%
    06:00 +12°C° 0 mm 2 mps 670 mmHg 54%
    07:00 +14°C° 0 mm 2 mps 671 mmHg 52%
    08:00 +16°C° 0 mm 2 mps 671 mmHg 47%
    09:00 +18°C° 0 mm 2 mps 672 mmHg 42%
    10:00 +20°C° 0 mm 2 mps 673 mmHg 36%
    11:00 +21°C° 0 mm 2 mps 673 mmHg 36%
    12:00 +21°C° 0 mm 2 mps 673 mmHg 35%
    13:00 +23°C° 0 mm 2 mps 672 mmHg 35%
    14:00 +21°C° 0 mm 2 mps 672 mmHg 39%
    15:00 +20°C° 0 mm 2 mps 671 mmHg 42%
    16:00 +20°C° 0 mm 2 mps 671 mmHg 46%
    17:00 +19°C° 0 mm 1 mps 671 mmHg 54%
    18:00 +16°C° 0 mm 1 mps 670 mmHg 61%
    19:00 +14°C° 0 mm 1 mps 670 mmHg 69%
    20:00 +13°C° 0 mm 1 mps 670 mmHg 72%
    21:00 +13°C° 0 mm 1 mps 670 mmHg 75%
    22:00 +12°C° 0 mm 1 mps 670 mmHg 78%
    23:00 +12°C° 0 mm 1 mps 670 mmHg 78%

    26 April, Friday

    Time Temperature Precipitation Wind Pressure Humidity
    00:00 +12°C° 0 mm 1 mps 669 mmHg 78%
    01:00 +11°C° 0 mm 1 mps 669 mmHg 78%
    02:00 +11°C° 0 mm 1 mps 669 mmHg 78%
    03:00 +11°C° 0 mm 1 mps 669 mmHg 77%
    04:00 +10°C° 0 mm 1 mps 668 mmHg 76%
    05:00 +12°C° 0 mm 1 mps 669 mmHg 71%
    06:00 +14°C° 0 mm 1 mps 670 mmHg 65%
    07:00 +15°C° 0 mm 1 mps 670 mmHg 60%
    08:00 +18°C° 0 mm 1 mps 671 mmHg 54%
    09:00 +20°C° 0 mm 1 mps 671 mmHg 48%
    10:00 +22°C° 0 mm 1 mps 672 mmHg 43%
    11:00 +23°C° 0 mm 1 mps 672 mmHg 42%
    12:00 +23°C° 0 mm 1 mps 671 mmHg 41%
    13:00 +24°C° 0 mm 2 mps 671 mmHg 40%
    14:00 +23°C° 0 mm 2 mps 671 mmHg 44%
    15:00 +21°C° 0 mm 2 mps 670 mmHg 47%
    16:00 +21°C° 0 mm 2 mps 670 mmHg 51%
    17:00 +20°C° 0.1 mm 1 mps 669 mmHg 60%
    18:00 +18°C° 0.1 mm 1 mps 669 mmHg 70%
    19:00 +15°C° 0.1 mm 1 mps 668 mmHg 79%
    20:00 +14°C° 0 mm 1 mps 668 mmHg 82%
    21:00 +14°C° 0 mm 1 mps 668 mmHg 84%
    22:00 +13°C° 0 mm 1 mps 668 mmHg 86%
    23:00 +12°C° 0 mm 1 mps 668 mmHg 87%

    27 April, Saturday

    Time Temperature Precipitation Wind Pressure Humidity
    00:00 +12°C° 0 mm 1 mps 668 mmHg 88%
    01:00 +12°C° 0 mm 1 mps 667 mmHg 88%
    02:00 +11°C° 0 mm 1 mps 667 mmHg 88%
    03:00 +11°C° 0 mm 1 mps 667 mmHg 87%
    04:00 +10°C° 0 mm 1 mps 667 mmHg 87%
    05:00 +12°C° 0 mm 1 mps 667 mmHg 80%
    06:00 +13°C° 0 mm 1 mps 667 mmHg 73%
    07:00 +15°C° 0 mm 1 mps 668 mmHg 67%
    08:00 +16°C° 0 mm 1 mps 668 mmHg 62%
    09:00 +17°C° 0 mm 2 mps 668 mmHg 57%
    10:00 +18°C° 0 mm 2 mps 668 mmHg 52%
    11:00 +18°C° 0.1 mm 2 mps 668 mmHg 53%
    12:00 +19°C° 0.1 mm 3 mps 668 mmHg 53%
    13:00 +19°C° 0.1 mm 3 mps 667 mmHg 53%
    14:00 +18°C° 0.6 mm 3 mps 667 mmHg 59%
    15:00 +17°C° 0.6 mm 3 mps 666 mmHg 65%
    16:00 +16°C° 0.6 mm 3 mps 666 mmHg 71%
    17:00 +13°C° 0.3 mm 3 mps 666 mmHg 77%
    18:00 +12°C° 0.3 mm 2 mps 665 mmHg 84%
    19:00 +10°C° 0.3 mm 2 mps 665 mmHg 90%
    20:00 +10°C° 0.1 mm 2 mps 665 mmHg 90%
    21:00 +10°C° 0.1 mm 1 mps 665 mmHg 89%
    22:00 +10°C° 0.1 mm 1 mps 665 mmHg 89%
    23:00 +9°C° 0 mm 1 mps 665 mmHg 88%
    Show more